Location: Petruro
(41.0333°N, 14.7833°E)
Time: 09:48:34
(UTC+00:00)

Meteor 1-27 Rocket - Pass Details

Date: 20 June 2021
Orbit: 830 x 910 km, 81.3° (Epoch: 26 July)

Event Time Altitude Azimuth Distance (km) Brightness Sun altitude
Rises 02:46:59 0° 350° (N) 3,418 7.3 -7.2°
Reaches altitude 10° 02:49:25 10° 351° (N) 2,469 6.6 -6.8°
Maximum altitude 02:55:01 87° 81° (E) 841 3.8 -6.0°
Drops below altitude 10° 03:00:31 10° 171° (S) 2,428 5.8 -5.2°
Sets 03:02:54 0° 171° (S) 3,357 6.5 -4.8°
